South St. Paul, MN

6:28 AM CDT on October 14, 2019 (GMT -0500)
South Saint Paul Municipal-Fleming

Weather History for KSGS - August, 2019

Change the Weather History Date:

Saturday, August 17, 2019

  Actual Average (KSTP) Record (KSTP)
Temperature  
Mean Temperature 71 °F -  
Max Temperature 81 °F 78 °F 91 °F (2003)
Min Temperature 61 °F 58 °F 50 °F (2012)
Cooling Degree Days 6    
Growing Degree Days 21 (Base 50)    
Moisture  
Dew Point 59 °F    
Average Humidity 67    
Maximum Humidity 94    
Minimum Humidity 37    
Precipitation  
Precipitation 0.00 in - - ()
Sea Level Pressure  
Sea Level Pressure 29.81 in    
Wind  
Wind Speed 4 mph (SSE)    
Max Wind Speed 12 mph    
Max Gust Speed 16 mph    
Visibility 10 miles    
Events Rain    
Averages and records for this station are not official NWS values.
T = Trace of Precipitation, MM = Missing Value Source: NWS Daily Summary

Daily Weather History Graph

Daily Weather History Graph

Search for Another Location

Airport or City:

Astronomy

Aug. 17, 2019 Rise Set
Actual Time 6:16 AM CDT 8:15 PM CDT
Civil Twilight 5:44 AM CDT 8:46 PM CDT
Nautical Twilight 5:05 AM CDT 9:25 PM CDT
Astronomical Twilight 4:22 AM CDT 10:07 PM CDT
Moon 9:39 PM CDT (8/17) 8:08 AM CDT (8/17)
Length of Visible Light 15h 02m
Length of Day
13h 58m
Waning Gibbous, 96% of the Moon is Illuminated
Aug 17
Waning Gibbous
Aug 23
Last Quarter
Aug 30
New
Sep 5
First Quarter
Sep 13
Full

Hourly Weather History & Observations

Time (CDT) Temp. Heat Index Dew Point Humidity Pressure Visibility Wind Dir Wind Speed Gust Speed Precip Events Conditions
12:15 AM 68.0 °F - 61.5 °F 80% 29.86 in 10.0 mi WSW 3.5 mph - N/A   Clear
12:16 AM 68.0 °F - 61.5 °F 80% 29.86 in 10.0 mi WSW 3.5 mph - N/A   Clear
12:35 AM 67.5 °F - 61.2 °F 80% 29.86 in 10.0 mi WSW 4.6 mph - N/A   Clear
12:55 AM 67.3 °F - 60.8 °F 80% 29.86 in 10.0 mi WSW 3.5 mph - N/A   Clear
12:56 AM 67.3 °F - 60.8 °F 80% 29.86 in 10.0 mi WSW 3.5 mph - N/A   Clear
1:15 AM 66.6 °F - 60.8 °F 82% 29.86 in 10.0 mi SW 4.6 mph - N/A   Clear
1:35 AM 66.7 °F - 60.4 °F 80% 29.86 in 10.0 mi WSW 3.5 mph - N/A   Clear
1:55 AM 67.1 °F - 59.9 °F 78% 29.87 in 10.0 mi WSW 5.8 mph - N/A   Clear
1:56 AM 67.1 °F - 59.9 °F 78% 29.87 in 10.0 mi WSW 4.6 mph - N/A   Clear
2:15 AM 66.4 °F - 59.9 °F 80% 29.86 in 10.0 mi WSW 3.5 mph - N/A   Clear
2:35 AM 66.2 °F - 59.9 °F 80% 29.86 in 10.0 mi Calm Calm - N/A   Clear
2:55 AM 65.3 °F - 59.9 °F 83% 29.85 in 10.0 mi Calm Calm - N/A   Clear
2:56 AM 65.3 °F - 59.9 °F 83% 29.85 in 10.0 mi Calm Calm - N/A   Clear
3:15 AM 65.5 °F - 59.4 °F 81% 29.83 in 10.0 mi Calm Calm - N/A   Clear
3:16 AM 65.5 °F - 59.4 °F 81% 29.83 in 10.0 mi Calm Calm - N/A   Clear
3:35 AM 65.7 °F - 59.0 °F 79% 29.82 in 10.0 mi Calm Calm - N/A   Clear
3:55 AM 63.9 °F - 59.9 °F 87% 29.81 in 10.0 mi Calm Calm - N/A   Clear
4:15 AM 64.4 °F - 59.5 °F 84% 29.78 in 10.0 mi NE 4.6 mph - N/A   Clear
4:16 AM 64.4 °F - 59.7 °F 85% 29.78 in 10.0 mi NE 4.6 mph - N/A   Clear
4:35 AM 63.5 °F - 60.3 °F 89% 29.75 in 10.0 mi Calm Calm - N/A   Clear
4:36 AM 63.5 °F - 60.4 °F 90% 29.75 in 10.0 mi Calm Calm - N/A   Clear
4:55 AM 62.6 °F - 60.1 °F 91% 29.77 in 10.0 mi Calm Calm - N/A   Clear
4:56 AM 62.6 °F - 60.3 °F 92% 29.77 in 10.0 mi SSW 3.5 mph - N/A   Clear
5:15 AM 62.1 °F - 60.3 °F 94% 29.81 in 10.0 mi South 5.8 mph - N/A   Clear
5:16 AM 61.9 °F - 60.3 °F 94% 29.81 in 10.0 mi South 5.8 mph - N/A   Clear
5:35 AM 63.0 °F - 60.1 °F 90% 29.83 in 10.0 mi South 4.6 mph - N/A   Clear
5:36 AM 63.0 °F - 60.1 °F 90% 29.83 in 10.0 mi South 5.8 mph - N/A   Clear
5:55 AM 62.6 °F - 59.9 °F 91% 29.88 in 10.0 mi South 4.6 mph - N/A   Clear
5:56 AM 62.6 °F - 59.9 °F 91% 29.88 in 10.0 mi South 5.8 mph - N/A   Clear
6:15 AM 63.5 °F - 59.4 °F 86% 29.89 in 10.0 mi Calm Calm - N/A   Clear
6:35 AM 63.1 °F - 59.0 °F 86% 29.89 in 10.0 mi SSE 3.5 mph - N/A   Clear
6:55 AM 62.6 °F - 59.7 °F 90% 29.89 in 10.0 mi SSE 3.5 mph - N/A   Clear
7:15 AM 63.1 °F - 60.1 °F 90% 29.88 in 10.0 mi Calm Calm - N/A   Clear
7:16 AM 63.1 °F - 60.1 °F 90% 29.88 in 10.0 mi Calm Calm - N/A   Clear
7:35 AM 64.2 °F - 60.3 °F 87% 29.86 in 10.0 mi SE 3.5 mph - N/A   Clear
7:55 AM 65.1 °F - 60.1 °F 84% 29.86 in 10.0 mi Calm Calm - N/A   Clear
8:15 AM 66.2 °F - 59.5 °F 79% 29.86 in 10.0 mi SE 3.5 mph - N/A   Clear
8:35 AM 66.6 °F - 59.2 °F 77% 29.87 in 10.0 mi SE 3.5 mph - N/A   Clear
8:55 AM 67.6 °F - 58.8 °F 73% 29.86 in 10.0 mi SSE 3.5 mph - N/A   Clear
8:56 AM 67.8 °F - 58.8 °F 73% 29.86 in 10.0 mi SSE 3.5 mph - N/A   Clear
9:15 AM 68.9 °F - 59.2 °F 71% 29.86 in 10.0 mi SSE 4.6 mph - N/A   Clear
9:35 AM 69.6 °F - 59.4 °F 70% 29.86 in 10.0 mi Calm Calm - N/A   Scattered Clouds
9:36 AM 69.4 °F - 59.5 °F 71% 29.86 in 10.0 mi South 3.5 mph - N/A   Scattered Clouds
9:55 AM 71.6 °F - 57.7 °F 62% 29.86 in 10.0 mi South 6.9 mph - N/A   Scattered Clouds
10:15 AM 72.9 °F - 57.9 °F 59% 29.86 in 10.0 mi South 5.8 mph - N/A   Clear
10:16 AM 73.0 °F - 58.3 °F 60% 29.86 in 10.0 mi South 5.8 mph - N/A   Clear
10:35 AM 73.6 °F - 58.6 °F 59% 29.86 in 10.0 mi South 6.9 mph - N/A   Clear
10:36 AM 73.6 °F - 58.8 °F 60% 29.86 in 10.0 mi South 5.8 mph - N/A   Clear
10:55 AM 74.5 °F - 59.2 °F 59% 29.86 in 10.0 mi South 5.8 mph - N/A   Clear
11:15 AM 75.7 °F - 58.6 °F 55% 29.86 in 10.0 mi South 11.5 mph - N/A   Clear
11:35 AM 76.1 °F - 59.5 °F 56% 29.86 in 10.0 mi South 8.1 mph - N/A   Clear
11:55 AM 77.5 °F - 60.4 °F 55% 29.85 in 10.0 mi South 8.1 mph - N/A   Clear
12:15 PM 77.7 °F - 59.7 °F 54% 29.84 in 10.0 mi South 6.9 mph - N/A   Clear
12:16 PM 77.9 °F - 60.1 °F 54% 29.84 in 10.0 mi South 5.8 mph - N/A   Clear
12:35 PM 78.1 °F - 59.7 °F 53% 29.83 in 10.0 mi SE 4.6 mph - N/A   Clear
12:55 PM 78.3 °F - 58.1 °F 50% 29.83 in 10.0 mi SSE 5.8 mph - N/A   Clear
12:56 PM 78.3 °F - 57.6 °F 49% 29.83 in 10.0 mi SSE 5.8 mph - N/A   Clear
1:15 PM 78.6 °F - 58.1 °F 49% 29.83 in 10.0 mi South 10.4 mph - N/A   Clear
1:35 PM 79.2 °F - 57.6 °F 47% 29.82 in 10.0 mi SE 9.2 mph - N/A   Clear
1:55 PM 79.7 °F - 57.6 °F 47% 29.82 in 7.0 mi SSE 8.1 mph - N/A   Clear
2:15 PM 80.2 °F 80.6 °F 57.9 °F 46% 29.82 in 10.0 mi SE 6.9 mph - N/A   Clear
2:35 PM 80.6 °F 80.8 °F 57.7 °F 45% 29.81 in 10.0 mi SE 6.9 mph - N/A   Clear
2:55 PM 81.1 °F 81.0 °F 56.1 °F 42% 29.81 in 10.0 mi South 10.4 mph 16.1 mph N/A   Clear
2:56 PM 81.1 °F 81.0 °F 55.9 °F 42% 29.81 in 10.0 mi South 9.2 mph 16.1 mph N/A   Clear
3:15 PM 80.6 °F 80.6 °F 56.1 °F 43% 29.80 in 10.0 mi SE 10.4 mph - N/A   Clear
3:16 PM 80.6 °F 80.5 °F 55.8 °F 42% 29.80 in 10.0 mi SE 10.4 mph - N/A   Clear
3:35 PM 81.0 °F 80.8 °F 55.8 °F 42% 29.80 in 10.0 mi SSE 6.9 mph - N/A   Clear
3:55 PM 81.0 °F 80.9 °F 56.3 °F 43% 29.79 in 10.0 mi SSE 9.2 mph - N/A   Clear
4:15 PM 81.3 °F 81.0 °F 55.4 °F 41% 29.79 in 10.0 mi SE 8.1 mph - N/A   Clear
4:35 PM 81.5 °F 81.4 °F 57.0 °F 43% 29.79 in 10.0 mi South 6.9 mph - N/A   Clear
4:36 PM 81.5 °F 81.4 °F 56.8 °F 43% 29.79 in 10.0 mi South 8.1 mph - N/A   Clear
4:55 PM 81.5 °F 81.3 °F 56.5 °F 42% 29.78 in 10.0 mi SSE 8.1 mph - N/A   Clear
5:15 PM 81.1 °F 81.0 °F 56.1 °F 42% 29.78 in 10.0 mi SE 6.9 mph - N/A   Clear
5:35 PM 81.7 °F 81.3 °F 55.6 °F 41% 29.78 in 10.0 mi SSE 9.2 mph - N/A   Clear
5:55 PM 81.5 °F 80.7 °F 53.1 °F 37% 29.77 in 10.0 mi SSE 6.9 mph - N/A   Clear
6:15 PM 80.8 °F 80.4 °F 53.4 °F 39% 29.76 in 10.0 mi SSE 8.1 mph - N/A   Clear
6:16 PM 80.8 °F 80.4 °F 53.6 °F 39% 29.76 in 10.0 mi SSE 8.1 mph - N/A   Clear
6:35 PM 80.2 °F 80.3 °F 55.2 °F 42% 29.74 in 10.0 mi SSE 9.2 mph - N/A   Clear
6:55 PM 79.7 °F - 56.7 °F 45% 29.73 in 10.0 mi SSE 5.8 mph - N/A   Clear
6:56 PM 79.7 °F - 56.8 °F 45% 29.73 in 10.0 mi SSE 5.8 mph - N/A   Clear
7:15 PM 78.8 °F - 58.1 °F 49% 29.73 in 10.0 mi SSE 4.6 mph - N/A   Clear
7:35 PM 77.9 °F - 59.4 °F 53% 29.74 in 10.0 mi SSE 5.8 mph - N/A   Clear
7:55 PM 77.0 °F - 60.1 °F 56% 29.74 in 10.0 mi SSE 4.6 mph - N/A   Clear
7:56 PM 76.8 °F - 60.1 °F 56% 29.74 in 10.0 mi SSE 4.6 mph - N/A   Clear
8:15 PM 75.7 °F - 60.4 °F 59% 29.75 in 10.0 mi SSE 4.6 mph - N/A   Clear
8:35 PM 75.2 °F - 60.8 °F 61% 29.75 in 10.0 mi SE 3.5 mph - N/A   Clear
8:36 PM 75.2 °F - 60.8 °F 61% 29.74 in 10.0 mi SE 3.5 mph - N/A   Clear
8:55 PM 74.3 °F - 60.8 °F 63% 29.73 in 10.0 mi SE 4.6 mph - N/A   Clear
9:15 PM 73.9 °F - 61.0 °F 64% 29.75 in 10.0 mi Calm Calm - N/A   Clear
9:16 PM 73.8 °F - 61.2 °F 65% 29.75 in 10.0 mi Calm Calm - N/A   Clear
9:35 PM 73.4 °F - 61.7 °F 67% 29.76 in 10.0 mi SSE 3.5 mph - N/A   Clear
9:55 PM 73.4 °F - 61.7 °F 67% 29.76 in 10.0 mi Calm Calm - N/A   Clear
10:15 PM 72.9 °F - 62.1 °F 69% 29.74 in 10.0 mi SE 3.5 mph - N/A   Clear
10:16 PM 72.7 °F - 62.1 °F 69% 29.73 in 10.0 mi SE 4.6 mph - N/A   Clear
10:35 PM 72.5 °F - 62.6 °F 71% 29.73 in 10.0 mi SSE 3.5 mph - N/A   Clear
10:55 PM 72.0 °F - 63.5 °F 75% 29.75 in 10.0 mi SSE 3.5 mph - N/A   Clear
10:56 PM 72.0 °F - 63.5 °F 75% 29.74 in 10.0 mi SE 3.5 mph - N/A   Clear
11:15 PM 71.6 °F - 63.7 °F 76% 29.73 in 10.0 mi Calm Calm - N/A   Scattered Clouds
11:35 PM 71.6 °F - 64.8 °F 79% 29.72 in 10.0 mi South 6.9 mph - N/A Rain Light Rain
11:36 PM 71.6 °F - 64.8 °F 79% 29.72 in 10.0 mi South 5.8 mph - N/A Rain Light Rain
11:55 PM 71.6 °F - 65.3 °F 80% 29.73 in 10.0 mi SSE 5.8 mph - N/A   Scattered Clouds